FW9769 Weather Reports


time (UTC)temp
C
wind
direction
speed
KPH
gust
KPH
rain 1hr
cm
rain 24hr
cm
rain mn
cm
humidity
%
barometer
mb
20260902195234 33 189 1.6 4.8 0.00 0.00 0.00 60 1018.1
20260902194734 33 164 0.0 4.8 0.00 0.00 0.00 60 1018.2
20260902194229 33 197 0.0 4.8 0.00 0.00 0.00 60 1018.1
20260902193725 33 97 1.6 4.8 0.00 0.00 0.00 59 1018.1
20260902193220 33 199 3.2 4.8 0.00 0.00 0.00 61 1018.2
20260902192719 33 180 1.6 4.8 0.00 0.00 0.00 59 1018.2
20260902192218 33 295 0.0 9.7 0.00 0.00 0.00 59 1018.3
20260902191718 33 175 0.0 4.8 0.00 0.00 0.00 58 1018.4
20260902191213 32 188 3.2 6.4 0.00 0.00 0.00 59 1018.5
20260902190709 33 241 3.2 6.4 0.00 0.00 0.00 60 1018.3
20260902190208 33 213 3.2 4.8 0.00 0.00 0.00 59 1018.5
20260902185704 33 197 4.8 6.4 0.00 0.00 0.00 59 1018.6
20260902185202 32 222 3.2 3.2 0.00 0.00 0.00 64 1018.8
20260902184655 32 267 3.2 4.8 0.00 0.00 0.00 61 1018.7
20260902184151 32 196 3.2 6.4 0.00 0.00 0.00 59 1018.6
20260902183646 32 296 1.6 4.8 0.00 0.00 0.00 63 1018.6
20260902183143 32 254 3.2 6.4 0.00 0.00 0.00 64 1018.8
20260902182639 32 192 4.8 4.8 0.00 0.00 0.00 62 1018.7
20260902182135 32 229 0.0 6.4 0.00 0.00 0.00 66 1018.8
20260902181631 32 163 3.2 6.4 0.00 0.00 0.00 66 1018.8
20260902181130 32 121 0.0 6.4 0.00 0.00 0.00 63 1018.9
20260902180630 32 216 3.2 3.2 0.00 0.00 0.00 62 1018.8
20260902180126 32 209 3.2 3.2 0.00 0.00 0.00 65 1018.8
20260902175626 32 246 3.2 3.2 0.00 0.00 0.00 65 1018.9
20260902175121 32 268 3.2 6.4 0.00 0.00 0.00 64 1018.9
20260902174618 32 279 3.2 3.2 0.00 0.00 0.00 65 1019.0
20260902174113 32 206 3.2 6.4 0.00 0.00 0.00 66 1019.1
20260902173608 32 165 0.0 3.2 0.00 0.00 0.00 64 1019.0
20260902173103 31 152 0.0 4.8 0.00 0.00 0.00 69 1019.2
20260902172603 31 294 3.2 3.2 0.00 0.00 0.00 66 1019.2
20260902172057 31 278 1.6 3.2 0.00 0.00 0.00 68 1019.3
20260902171553 31 262 3.2 4.8 0.00 0.00 0.00 65 1019.4
20260902171049 31 271 6.4 6.4 0.00 0.00 0.00 64 1019.4
20260902170544 31 290 0.0 6.4 0.00 0.00 0.00 65 1019.4
20260902170040 31 167 0.0 3.2 0.00 0.00 0.00 66 1019.4
20260902165539 31 212 0.0 6.4 0.00 0.00 0.00 66 1019.5
20260902165039 31 207 0.0 4.8 0.00 0.00 0.00 65 1019.6
20260902164535 31 291 4.8 4.8 0.00 0.00 0.00 68 1019.4
20260902164033 31 117 3.2 6.4 0.00 0.00 0.00 71 1019.4
20260902163530 31 242 3.2 4.8 0.00 0.00 0.00 72 1019.5
20260902163028 31 197 3.2 3.2 0.00 0.00 0.00 70 1019.5
20260902162527 31 252 3.2 4.8 0.00 0.00 0.00 72 1019.5
20260902162023 31 226 1.6 3.2 0.00 0.00 0.00 69 1019.6
20260902161518 31 239 3.2 6.4 0.00 0.00 0.00 67 1019.6
20260902161013 31 204 3.2 3.2 0.00 0.00 0.00 67 1019.4
20260902160509 31 207 1.6 3.2 0.00 0.00 0.00 69 1019.5
20260902160010 31 265 0.0 3.2 0.00 0.00 0.00 70 1019.6
20260902155502 31 254 0.0 6.4 0.00 0.00 0.00 69 1019.5
20260902155001 31 241 4.8 4.8 0.00 0.00 0.00 69 1019.4
20260902154456 31 217 0.0 6.4 0.00 0.00 0.00 69 1019.3
20260902153951 30 199 3.2 6.4 0.00 0.00 0.00 69 1019.5
20260902153449 30 220 1.6 3.2 0.00 0.00 0.00 71 1019.5
20260902152945 31 307 4.8 6.4 0.00 0.00 0.00 68 1019.5
20260902152441 31 227 0.0 4.8 0.00 0.00 0.00 69 1019.6
20260902151937 32 222 1.6 3.2 0.00 0.00 0.00 67 1019.7
20260902151433 31 214 3.2 4.8 0.00 0.00 0.00 66 1019.5
20260902150932 32 258 1.6 3.2 0.00 0.00 0.00 68 1019.5
20260902150429 32 243 3.2 3.2 0.00 0.00 0.00 65 1019.4
20260902145928 32 185 0.0 3.2 0.00 0.00 0.00 65 1019.7
20260902145423 32 218 0.0 4.8 0.00 0.00 0.00 69 1019.6
20260902144918 31 203 3.2 4.8 0.00 0.00 0.00 67 1019.8
20260902144414 31 264 0.0 3.2 0.00 0.00 0.00 70 1019.7
20260902143914 31 207 1.6 4.8 0.00 0.00 0.00 68 1019.6
20260902143409 31 192 0.0 3.2 0.00 0.00 0.00 67 1019.7
20260902142904 32 262 1.6 3.2 0.00 0.00 0.00 70 1019.7
20260902142401 31 212 1.6 3.2 0.00 0.00 0.00 71 1019.7
20260902141856 31 240 1.6 3.2 0.00 0.00 0.00 69 1019.7
20260902141351 31 234 3.2 3.2 0.00 0.00 0.00 70 1019.7
20260902140850 31 242 0.0 1.6 0.00 0.00 0.00 71 1019.7
20260902140346 30 220 3.2 3.2 0.00 0.00 0.00 71 1019.4
20260902135845 30 220 1.6 3.2 0.00 0.00 0.00 71 1019.6
20260902135342 29 301 1.6 3.2 0.00 0.00 0.00 76 1019.5
20260902134840 29 303 3.2 3.2 0.00 0.00 0.00 75 1019.7
20260902134336 29 219 3.2 3.2 0.00 0.00 0.00 74 1019.6
20260902133831 29 211 1.6 3.2 0.00 0.00 0.00 74 1019.6
20260902133331 28 211 3.2 3.2 0.00 0.00 0.00 75 1019.6
20260902132826 28 241 3.2 3.2 0.00 0.00 0.00 77 1019.5
20260902132321 27 249 1.6 3.2 0.00 0.00 0.00 78 1019.6
20260902131817 26 231 0.0 6.4 0.00 0.00 0.00 82 1019.6
20260902131314 26 271 1.6 3.2 0.00 0.00 0.00 86 1019.7
20260902130813 25 225 1.6 3.2 0.00 0.00 0.00 86 1019.6
20260902130309 25 246 0.0 3.2 0.00 0.00 0.00 87 1019.6
20260902125804 25 306 1.6 3.2 0.00 0.00 0.00 91 1019.7
20260902125300 23 246 0.0 1.6 0.00 0.00 0.00 91 1019.6
20260902124756 23 183 1.6 3.2 0.00 0.00 0.00 94 1019.6
20260902124252 22 302 0.0 3.2 0.00 0.00 0.00 95 1019.5
20260902123752 22 269 0.0 3.2 0.00 0.00 0.00 97 1019.7
20260902123248 22 241 1.6 1.6 0.00 0.00 0.00 98 1019.6
20260902122746 22 180 0.0 1.6 0.00 0.00 0.00 99 1019.6
20260902122243 22 224 1.6 3.2 0.00 0.00 0.00 99 1019.5
20260902121742 22 237 0.0 3.2 0.00 0.00 0.00 99 1019.5
20260902121237 21 269 0.0 1.6 0.00 0.00 0.00 99 1019.5
20260902120733 21 242 0.0 0.0 0.00 0.00 0.00 99 1019.3
20260902120230 21 184 0.0 1.6 0.00 0.00 0.00 99 1019.2
20260902115730 21 195 0.0 0.0 0.00 0.00 0.00 99 1019.3
20260902115226 21 269 0.0 0.0 0.00 0.00 0.00 99 1019.2
20260902114722 21 242 0.0 3.2 0.00 0.00 0.00 99 1019.3
20260902114218 21 18 0.0 1.6 0.00 0.00 0.00 99 1019.1
20260902113718 21 89 0.0 1.6 0.00 0.00 0.00 99 1019.1
20260902113213 21 158 3.2 3.2 0.00 0.00 0.00 99 1019.1
20260902112712 21 165 0.0 1.6 0.00 0.00 0.00 99 1019.0
20260902112210 21 309 0.0 1.6 0.00 0.00 0.00 99 1018.9
20260902111705 21 66 0.0 1.6 0.00 0.00 0.00 99 1018.9
20260902111201 21 113 0.0 1.6 0.00 0.00 0.00 99 1018.7
20260902110656 21 124 0.0 1.6 0.00 0.00 0.00 99 1018.8
20260902110152 21 202 0.0 3.2 0.00 0.00 0.00 99 1018.9
20260902105652 21 124 0.0 3.2 0.00 0.00 0.00 99 1018.6
20260902105147 21 173 1.6 1.6 0.00 0.00 0.00 98 1018.7
20260902104642 21 154 0.0 3.2 0.00 0.00 0.00 98 1018.6
20260902104138 21 18 0.0 3.2 0.00 0.00 0.00 98 1018.7
20260902103637 21 9 1.6 1.6 0.00 0.00 0.00 98 1018.7
20260902103132 21 163 1.6 3.2 0.00 0.00 0.00 98 1018.8
20260902102628 21 97 1.6 1.6 0.00 0.00 0.00 98 1018.7
20260902102126 21 145 0.0 3.2 0.00 0.00 0.00 98 1018.7
20260902101621 21 269 0.0 1.6 0.00 0.00 0.00 98 1018.7
20260902101120 21 112 0.0 1.6 0.00 0.00 0.00 98 1018.7
20260902100615 21 169 0.0 3.2 0.00 0.00 0.00 98 1018.7
20260902100110 21 46 1.6 3.2 0.00 0.00 0.00 98 1018.5
20260902095609 21 165 1.6 3.2 0.00 0.00 0.00 98 1018.7
20260902095108 21 182 1.6 1.6 0.00 0.00 0.00 98 1018.6
20260902094604 21 80 0.0 3.2 0.00 0.00 0.00 98 1018.5
20260902094100 21 269 0.0 1.6 0.00 0.00 0.00 98 1018.5
20260902093559 21 195 0.0 1.6 0.00 0.00 0.00 98 1018.6
20260902093055 21 50 0.0 0.0 0.00 0.00 0.00 98 1018.6
20260902092554 21 199 1.6 3.2 0.00 0.00 0.00 98 1018.4
20260902092050 21 324 0.0 3.2 0.00 0.00 0.00 98 1018.5
20260902091545 21 212 0.0 0.0 0.00 0.00 0.00 98 1018.5
20260902091041 21 147 0.0 1.6 0.00 0.00 0.00 98 1018.4
20260902090537 21 77 0.0 1.6 0.00 0.00 0.00 98 1018.5
20260902090036 21 197 0.0 3.2 0.00 0.00 0.00 97 1018.5
20260902085530 21 142 0.0 3.2 0.00 0.00 0.00 97 1018.5
20260902085026 21 252 0.0 1.6 0.00 0.00 0.00 97 1018.4
20260902084522 21 120 1.6 3.2 0.00 0.00 0.00 97 1018.4
20260902084017 21 54 0.0 1.6 0.00 0.00 0.00 97 1018.4
20260902083512 21 173 0.0 0.0 0.00 0.00 0.00 97 1018.3
20260902083007 22 129 0.0 0.0 0.00 0.00 0.00 97 1018.3
20260902082502 22 129 0.0 0.0 0.00 0.00 0.00 97 1018.1
20260902081959 22 119 0.0 0.0 0.00 0.00 0.00 97 1018.1
20260902081456 22 124 0.0 0.0 0.00 0.00 0.00 97 1017.9
20260902080955 22 117 0.0 0.0 0.00 0.00 0.00 98 1018.1
20260902080451 22 117 0.0 0.0 0.00 0.00 0.00 98 1017.9
20260902075950 22 126 0.0 0.0 0.00 0.00 0.00 98 1018.1
20260902075447 22 129 0.0 0.0 0.00 0.00 0.00 98 1018.0
20260902074942 22 129 0.0 0.0 0.00 0.00 0.00 98 1017.9
20260902074437 22 134 0.0 0.0 0.00 0.00 0.00 98 1017.8
20260902073932 22 217 0.0 0.0 0.00 0.00 0.00 98 1017.9
20260902073429 22 142 0.0 0.0 0.00 0.00 0.00 98 1018.0
20260902072924 22 129 0.0 0.0 0.00 0.00 0.00 98 1018.0
20260902072420 22 235 0.0 0.0 0.00 0.00 0.00 97 1018.1
20260902071916 22 217 0.0 0.0 0.00 0.00 0.00 97 1017.8
20260902071416 22 212 0.0 0.0 0.00 0.00 0.00 97 1018.0
20260902070912 22 129 0.0 0.0 0.00 0.00 0.00 97 1017.9
20260902070408 22 230 0.0 0.0 0.00 0.00 0.00 97 1018.1
20260902065906 22 230 0.0 0.0 0.00 0.00 0.00 97 1018.1
20260902065401 22 217 0.0 0.0 0.00 0.00 0.00 97 1017.9
20260902064857 22 217 0.0 0.0 0.00 0.00 0.00 97 1017.9
20260902064353 22 217 0.0 0.0 0.00 0.00 0.00 96 1018.0
20260902063848 22 230 0.0 0.0 0.00 0.00 0.00 96 1017.9
20260902063348 22 142 0.0 0.0 0.00 0.00 0.00 96 1018.0
20260902062848 22 242 0.0 0.0 0.00 0.00 0.00 96 1018.1
20260902062348 22 242 0.0 0.0 0.00 0.00 0.00 96 1018.0
20260902061847 22 242 0.0 0.0 0.00 0.00 0.00 96 1018.0
20260902061343 22 124 0.0 0.0 0.00 0.00 0.00 96 1018.1
20260902060839 22 22 0.0 0.0 0.00 0.00 0.00 96 1018.1
20260902060334 22 22 0.0 0.0 0.00 0.00 0.00 95 1018.2
20260902055830 22 22 0.0 0.0 0.00 0.00 0.00 95 1018.2
20260902055326 22 142 0.0 0.0 0.00 0.00 0.00 95 1018.3
20260902054821 22 142 0.0 0.0 0.00 0.00 0.00 95 1018.3
20260902054317 22 142 0.0 0.0 0.00 0.00 0.00 95 1018.2
20260902053812 22 142 0.0 0.0 0.00 0.00 0.00 94 1018.2
20260902053307 22 142 0.0 0.0 0.00 0.00 0.00 94 1018.2
20260902052806 22 154 0.0 0.0 0.00 0.00 0.00 94 1018.2
20260902052306 23 154 0.0 0.0 0.00 0.00 0.00 94 1018.3
20260902051756 23 180 0.0 0.0 0.00 0.00 0.00 94 1018.3
20260902051255 23 113 0.0 0.0 0.00 0.00 0.00 93 1018.4
20260902050750 23 129 0.0 0.0 0.00 0.00 0.00 93 1018.2
20260902050245 23 141 0.0 0.0 0.00 0.00 0.00 94 1018.2
20260902045745 23 135 0.0 0.0 0.00 0.00 0.00 93 1018.1
20260902045241 23 135 0.0 0.0 0.00 0.00 0.00 93 1018.0
20260902044737 23 205 0.0 0.0 0.00 0.00 0.00 93 1018.1
20260902044232 23 205 0.0 0.0 0.00 0.00 0.00 93 1018.3
20260902043727 23 129 0.0 3.2 0.00 0.00 0.00 93 1018.2
20260902043223 23 33 0.0 0.0 0.00 0.00 0.00 93 1018.3
20260902042722 23 142 0.0 0.0 0.00 0.00 0.00 93 1018.3
20260902042217 23 142 0.0 0.0 0.00 0.00 0.00 93 1018.2
20260902041712 23 142 0.0 0.0 0.00 0.00 0.00 94 1018.3
20260902041207 23 142 0.0 0.0 0.00 0.00 0.00 93 1018.2
20260902040706 23 117 0.0 0.0 0.00 0.00 0.00 93 1018.2
20260902040202 23 129 0.0 0.0 0.00 0.00 0.00 93 1018.2
20260902035700 23 103 0.0 0.0 0.00 0.00 0.00 93 1018.2
20260902035155 23 116 0.0 1.6 0.00 0.00 0.00 93 1018.2
20260902034654 23 134 1.6 1.6 0.00 0.00 0.00 93 1018.2
20260902034154 23 104 0.0 0.0 0.00 0.00 0.00 93 1018.1
20260902033653 23 129 0.0 1.6 0.00 0.00 0.00 92 1018.2
20260902033148 23 142 0.0 1.6 0.00 0.00 0.00 92 1018.2
20260902032647 23 147 0.0 0.0 0.00 0.00 0.00 92 1018.0
20260902032142 23 154 0.0 1.6 0.00 0.00 0.00 92 1018.3
20260902031642 23 117 0.0 0.0 0.00 0.00 0.00 91 1018.2
20260902031138 23 142 0.0 0.0 0.00 0.00 0.00 92 1018.1
20260902030633 24 205 0.0 0.0 0.00 0.00 0.00 92 1018.3
20260902030132 24 117 0.0 0.0 0.00 0.00 0.00 91 1018.2
20260902025632 24 117 0.0 1.6 0.00 0.00 0.00 91 1018.4
20260902025128 24 135 0.0 0.0 0.00 0.00 0.00 91 1018.2
20260902024624 24 117 0.0 0.0 0.00 0.00 0.00 92 1018.3
20260902024123 24 217 0.0 0.0 0.00 0.00 0.00 91 1018.5
20260902023620 24 217 0.0 0.0 0.00 0.00 0.00 91 1018.3
20260902023114 24 154 0.0 0.0 0.00 0.00 0.00 91 1018.1
20260902022614 24 224 0.0 0.0 0.00 0.00 0.00 91 1018.2
20260902022110 24 142 0.0 0.0 0.00 0.00 0.00 91 1018.3
20260902021604 25 135 0.0 0.0 0.00 0.00 0.00 91 1018.3
20260902021059 25 164 0.0 0.0 0.00 0.00 0.00 91 1018.3
20260902020555 25 154 0.0 0.0 0.00 0.00 0.00 90 1018.2
20260902020051 25 113 0.0 0.0 0.00 0.00 0.00 90 1018.2
20260902015547 25 113 0.0 0.0 0.00 0.00 0.00 90 1018.3
20260902015042 25 135 0.0 1.6 0.00 0.00 0.00 90 1018.1
20260902014538 25 154 0.0 1.6 0.00 0.00 0.00 90 1018.1
20260902014033 25 129 0.0 1.6 0.00 0.00 0.00 89 1018.2
20260902013533 25 129 0.0 0.0 0.00 0.00 0.00 89 1018.2
20260902013029 25 147 0.0 1.6 0.00 0.00 0.00 90 1018.1
20260902012524 25 104 0.0 1.6 0.00 0.00 0.00 90 1018.2
20260902012020 25 129 0.0 1.6 0.00 0.00 0.00 90 1018.1
20260902011515 25 152 0.0 1.6 0.00 0.00 0.00 89 1018.2
20260902011014 25 120 0.0 1.6 0.00 0.00 0.00 89 1018.1
20260902010514 25 129 0.0 1.6 0.00 0.00 0.00 90 1018.1
20260902010010 25 129 0.0 1.6 0.00 0.00 0.00 90 1017.9
20260902005508 25 117 0.0 0.0 0.00 0.00 0.00 89 1017.9
20260902005004 25 117 0.0 0.0 0.00 0.00 0.00 90 1017.8
20260902004503 25 131 0.0 1.6 0.00 0.00 0.00 88 1017.9
20260902003959 25 141 0.0 1.6 0.00 0.00 0.00 88 1017.8
20260902003454 26 135 0.0 1.6 0.00 0.00 0.00 88 1018.0
20260902002949 26 136 1.6 1.6 0.00 0.00 0.00 87 1017.7
20260902002444 26 117 0.0 1.6 0.00 0.00 0.00 87 1017.8
20260902001944 26 129 0.0 0.0 0.00 0.00 0.00 86 1017.9
20260902001439 26 129 0.0 0.0 0.00 0.00 0.00 87 1017.7
20260902000934 26 129 0.0 0.0 0.00 0.00 0.00 87 1017.7
20260902000429 26 142 0.0 0.0 0.00 0.00 0.00 86 1017.7
20260901235924 27 129 0.0 0.0 0.00 0.00 0.00 86 1017.9
20260901235419 27 138 0.0 0.0 0.00 0.00 0.00 85 1017.8
20260901234914 27 142 0.0 0.0 0.00 0.00 0.00 84 1017.7
20260901234408 27 119 0.0 1.6 0.00 0.00 0.00 84 1017.9
20260901233903 28 129 0.0 1.6 0.00 0.00 0.00 82 1017.9
20260901233358 28 142 0.0 0.0 0.00 0.00 0.00 81 1017.9
20260901232854 28 157 0.0 1.6 0.00 0.00 0.00 81 1017.8
20260901232348 28 205 0.0 0.0 0.00 0.00 0.00 78 1018.0
20260901231844 29 154 0.0 1.6 0.00 0.00 0.00 76 1018.0
20260901231340 29 126 0.0 1.6 0.00 0.00 0.00 76 1018.1
20260901230837 30 255 0.0 1.6 0.00 0.00 0.00 77 1018.1
20260901230336 30 215 1.6 3.2 0.00 0.00 0.00 71 1017.9
20260901225832 30 178 0.0 1.6 0.00 0.00 0.00 73 1018.1
20260901225331 30 230 0.0 0.0 0.00 0.00 0.00 72 1017.9
20260901224826 30 240 0.0 1.6 0.00 0.00 0.00 70 1018.0
20260901224323 30 217 0.0 1.6 0.00 0.00 0.00 69 1018.0
20260901223819 30 197 0.0 3.2 0.00 0.00 0.00 69 1018.0
20260901223314 30 230 0.0 1.6 0.00 0.00 0.00 70 1018.0
20260901222809 30 217 0.0 3.2 0.00 0.00 0.00 69 1018.1
20260901222306 31 217 0.0 3.2 0.00 0.00 0.00 67 1018.2
20260901221801 31 212 0.0 3.2 0.00 0.00 0.00 69 1018.0
20260901221256 31 217 0.0 1.6 0.00 0.00 0.00 68 1018.1
20260901220756 31 147 0.0 3.2 0.00 0.00 0.00 68 1018.1
20260901220256 31 244 0.0 3.2 0.00 0.00 0.00 67 1018.0
20260901215755 31 197 0.0 3.2 0.00 0.00 0.00 67 1018.0
20260901215254 31 269 0.0 3.2 0.00 0.00 0.00 67 1018.1
20260901214752 31 219 3.2 3.2 0.00 0.00 0.00 63 1017.9
20260901214252 31 225 1.6 3.2 0.00 0.00 0.00 63 1017.9
20260901213747 32 195 0.0 3.2 0.00 0.00 0.00 62 1018.0
20260901213246 32 266 3.2 4.8 0.00 0.00 0.00 65 1018.1
20260901212746 32 252 0.0 3.2 0.00 0.00 0.00 65 1018.0
20260901212242 32 222 3.2 3.2 0.00 0.00 0.00 64 1017.9
20260901211737 32 216 3.2 4.8 0.00 0.00 0.00 60 1018.1
20260901211233 33 196 1.6 4.8 0.00 0.00 0.00 60 1018.1
20260901210729 33 266 3.2 3.2 0.00 0.00 0.00 60 1018.0
20260901210225 35 224 3.2 3.2 0.00 0.00 0.00 60 1017.9
20260901205721 34 235 3.2 6.4 0.00 0.00 0.00 57 1018.2
20260901205220 34 202 3.2 3.2 0.00 0.00 0.00 56 1018.2
20260901204716 35 181 0.0 4.8 0.00 0.00 0.00 56 1018.1
20260901204212 35 292 3.2 4.8 0.00 0.00 0.00 57 1018.2
20260901203707 34 227 0.0 4.8 0.00 0.00 0.00 58 1018.1
20260901203201 34 201 1.6 3.2 0.00 0.00 0.00 59 1018.0
20260901202701 33 233 1.6 3.2 0.00 0.00 0.00 60 1018.3
20260901202156 33 264 1.6 4.8 0.00 0.00 0.00 61 1018.2
20260901201652 32 187 1.6 4.8 0.00 0.00 0.00 62 1018.1
20260901201151 32 201 3.2 3.2 0.00 0.00 0.00 63 1018.1
20260901200651 32 208 3.2 6.4 0.00 0.00 0.00 61 1018.2
20260901200146 32 292 1.6 4.8 0.00 0.00 0.00 60 1018.2
20260901195643 32 194 1.6 8.0 0.00 0.00 0.00 61 1018.2